sat.trackr.live / text

‹ back to catalog

STARLINK-31928

NORAD 59897 · 2024-100N

PAYLOAD ACTIVE UNKNOWN

§ Identity

Operator
Country
US
Launch date
2024-05-28
Launch site
AFETR
Launch vehicle
Mass (kg)
RCS (m²)

Purposes: comms

External: N2YO · Heavens-Above · Gunter

§ Orbital elements

Epoch: 2026-05-25T03:02:48.573312Z

Period
94.27 min
Inclination
43.0042°
Eccentricity
0.0001065
Mean motion
15.27584124 rev/d
Perigee alt
482.3 km
Apogee alt
483.8 km
Semi-major
6,861.2 km
B*
3.7730e-5
RAAN
54.0082°
Arg perigee
276.6729°
Mean anomaly
83.4001°
Rev number
11,274

§ Raw data

STARLINK-319281 59897U 24100N   26145.12695108  .00000776  00000+0  37730-4 0  99982 59897  43.0042  54.0082 0001065 276.6729  83.4001 15.27584124112743

JSON: /api/v1/satellites/59897 · /tle

For live sub-satellite position, see the globe view (requires WebGL).

§ Visibility from observer

Set your observer location to see the next 7 days of passes ≥ 10°. The values pass through the URL so the page stays shareable.

No JS? Fill the form by hand. The geolocation button needs JavaScript.